Regional Weather Roundup
Issued by NWS

Home | Current Version | Previous Version | Graphics & Text | Print | Product List | Glossary On
Versions: 1 2 3 4 5 6 7 8 9 10 11 12 13 14 15 16 17 18 19 20 21 22 23 24 25 26 27 28 29 30 31 32 33 34 35 36 37 38 39 40 41 42 43 44 45 46 47 48 49 50
000
ASUS45 KBOU 051807
RWRCO

WEATHER ROUNDUP FOR COLORADO
NATIONAL WEATHER SERVICE DENVER/BOULDER CO
1100 AM MST THU MAR 05 2015

NOTE: "FAIR" INDICATES FEW OR NO CLOUDS BELOW 12000 FEET WITH NO
SIGNIFICANT WEATHER AND/OR OBSTRUCTIONS TO VISIBILITY.

COZ001>005-013-030-031-051900-
...NORTHWEST COLORADO...

CITY           SKY/WX    TMP DP  RH WIND       PRES   REMARKS
CRAIG          PTSUNNY   26  10  50 E9        30.39S WCI  17
HAYDEN         PTSUNNY   21   7  53 SE5       30.38S WCI  15
MEEKER         MOSUNNY   28  14  55 CALM      30.38F
MOUNT WERNER   NOT AVBL
STEAMBOAT SPGS PTSUNNY   17   5  57 CALM      30.37F
WALDEN         MOSUNNY   21   5  49 S18       30.27F WCI   6
$$

COZ006>008-011-051900-
...WEST CENTRAL VALLEYS...

CITY           SKY/WX    TMP DP  RH WIND       PRES   REMARKS
GRAND JUNCTION SUNNY     34   7  32 CALM      30.45S
MONTROSE       SUNNY     31  11  43 CALM      30.45S
EAGLE          SUNNY     21   7  53 CALM      30.44F
RIFLE          SUNNY     30  10  43 E5        30.44F WCI  25
DELTA          SUNNY     35  10  36 E5        30.46S WCI  31
NUCLA          SUNNY     34  16  47 NW3       30.45S
$$

COZ017>023-064>068-051900-
...SOUTHWEST COLORADO...

CITY           SKY/WX    TMP DP  RH WIND       PRES   REMARKS
DURANGO        SUNNY     28   8  43 NE5       30.38F WCI  23
CORTEZ         SUNNY     38  11  32 CALM      30.40S
PAGOSA SPRINGS SUNNY     30  -1  26 W3        30.36S
TELLURIDE      SUNNY     31  -2  24 CALM      30.37R
WOLF CREEK PAS SUNNY     16   9  73 SW8       30.32R WCI   5
$$

COZ009-010-012-014-032>034-037-058>063-051900-
...CENTRAL COLORADO...

CITY           SKY/WX    TMP DP  RH WIND       PRES   REMARKS
ASPEN          SUNNY     25   6  44 N7        30.34F WCI  17
BUENA VISTA    SUNNY     28   0  29 SE3       30.26F
COPPER MTN     NOT AVBL
BERTHOUD PASS  NOT AVBL
COTTONWOOD PAS SUNNY     30  -8  19 E6        30.24R WCI  24
GUNNISON       SUNNY      7   1  78 SE5       30.46S WCI  -2
KREMMLING      SUNNY     18   3  53 E3        30.40F
LEADVILLE      SUNNY     24  -4  29 NW12      30.26S WCI  13
SALIDA         SUNNY     37   3  24 S12G17    30.33F
SUNLIGHT       SUNNY     19  14  79 CALM        N/A
WILKERSON PASS PTSUNNY   18  -6  35 W7        30.22R WCI   8
$$

COZ069>075-051900-
...SAN LUIS VALLEY/SANGRE DE CRISTO MOUNTAINS...

CITY           SKY/WX    TMP DP  RH WIND       PRES   REMARKS
ALAMOSA        SUNNY     26   2  35 CALM      30.36F
LA VETA PASS     N/A     23   0  36 S14G25    30.23S WCI  11
SAGUACHE       SUNNY     28   9  43 SE8       30.35S WCI  20
$$

COZ035-036-038>040-051900-
...NORTHERN COLORADO FRONT RANGE...

CITY           SKY/WX    TMP DP  RH WIND       PRES   REMARKS
DENVER INTL AP PTSUNNY   32  17  54 N7        30.20R WCI  26
DMNS CITY PARK   N/A     42   6  22 W2        30.19F
AURORA         PTSUNNY   40   8  26 NE3       30.20R
FRONT RANGE AP NOT AVBL
ERIE MUNI ARPT CLOUDY    22   8  56 CALM      30.22R
BOULDER MUN AP CLOUDY    27  10  50 NE5       30.21R WCI  21
CENTENNIAL     PTSUNNY   39   3  22 CALM      30.18S
BROOMFIELD     PTSUNNY   32  12  43 MISG      30.19R
FORT COLLINS   PTSUNNY   21  12  68 N5        30.24S WCI  15
LONGMONT       PTSUNNY   31  10  41 N5        30.24S WCI  26
$$

COZ041-046-047-076>085-087-088-051900-
...PIKES PEAK/PALMER DIVIDE AND SOUTHERN FOOTHILLS...

CITY           SKY/WX    TMP DP  RH WIND       PRES   REMARKS
COLO. SPRINGS  PTSUNNY   32   5  32 E6        30.22S WCI  26
A. F. ACADEMY  PTSUNNY   34   1  25 SE7       30.20S WCI  27
ELLICOTT       NOT AVBL
FALCON         PTSUNNY   34   3  27 CALM      30.22S
FORT CARSON    NOT AVBL
LIMON          MOSUNNY   27   6  41 CALM      30.24S
MONUMENT HILL  PTSUNNY   34   9  35 S7        30.18R WCI  28
TRINIDAD       SUNNY     27  19  72 W6        30.26F WCI  20
$$

COZ042>045-048>051-090-091-051900-
...NORTHEAST COLORADO...

CITY           SKY/WX    TMP DP  RH WIND       PRES   REMARKS
GREELEY ARPT   PTSUNNY   21  10  63 CALM      30.24S
AKRON          MOSUNNY   39   9  29 SW9       30.23S
BURLINGTON     SUNNY     38  13  35 SW15      30.28F
WRAY           SUNNY     44   8  22 SW8       30.27S
STERLING       MOSUNNY   36  18  48 SW10      30.25S
HOLYOKE        NOT AVBL
FORT MORGAN    MOSUNNY   33  13  42 W5        30.26R WCI  29
$$

COZ086-089-092>099-051900-
...SOUTHEAST COLORADO...

CITY           SKY/WX    TMP DP  RH WIND       PRES   REMARKS
PUEBLO         MOSUNNY   28  16  60 CALM      30.27F
LA JUNTA       SUNNY     35  21  56 SW8       30.30F WCI  29
LAMAR          SUNNY     34  18  52 W8        30.33F WCI  27
SPRINGFIELD      N/A     38  14  37 S14       30.32F
$$



USA.gov is the U.S. government's official web portal to all federal, state and local government web resources and services.